Weather History for KHQZ - September, 2013

Change the Weather History Date:

Wednesday, September 4, 2013

  Actual Average (KDFW) Record (KDFW)
Temperature  
Mean Temperature 86 °F 82 °F  
Max Temperature 99 °F 92 °F 111 °F (2000)
Min Temperature 72 °F 72 °F 55 °F (1974)
Degree Days  
Heating Degree Days 0 0  
Month to date heating degree days 0  
Since 1 July heating degree days 0  
Cooling Degree Days 20 17  
Month to date cooling degree days 70  
Year to date cooling degree days 2252  
Growing Degree Days 36 (Base 50)    
Moisture  
Dew Point 64 °F    
Average Humidity 50    
Maximum Humidity 85    
Minimum Humidity 25    
Precipitation  
Precipitation 0.00 in 0.09 in 4.54 in (1943)
Month to date precipitation 0.38  
Year to date precipitation 24.49  
Sea Level Pressure  
Sea Level Pressure 30.00 in    
Wind  
Wind Speed 4 mph (ENE)    
Max Wind Speed 10 mph    
Max Gust Speed -    
Visibility 10 miles    
Events      
T = Trace of Precipitation, MM = Missing Value Source: NWS Daily Summary

Daily Weather History Graph

Daily Weather History Graph

Search for Another Location

Airport or City:

Trip Planner

Search our weather history database for the weather conditions in past years. The results will help you decide how hot, cold, wet, or windy it might be!

Date:

Astronomy

Sep. 04, 2013 Rise Set
Actual Time 7:02 AM CDT 7:46 PM CDT
Civil Twilight 6:37 AM CDT 8:11 PM CDT
Nautical Twilight 6:08 AM CDT 8:40 PM CDT
Astronomical Twilight 5:38 AM CDT 9:11 PM CDT
Moon 6:15 AM CDT (9/4) 7:08 PM CDT (9/4)
Length of Visible Light 13h 33m
Length of Day
12h 43m
Waning Crescent, 1% of the Moon is Illuminated
Sep 4
Waning Crescent
Sep 5
New
Sep 12
First Quarter
Sep 19
Full
Sep 26
Last Quarter

Hourly Weather History & Observations

Time (CDT) Temp. Heat Index Dew Point Humidity Pressure Visibility Wind Dir Wind Speed Gust Speed Precip Events Conditions
12:15 AM 82.0 °F 82.8 °F 61.7 °F 50% 29.95 in 10.0 mi ENE 5.8 mph - N/A   Clear
12:35 AM 83.1 °F 84.0 °F 63.0 °F 50% 29.95 in 10.0 mi East 6.9 mph - N/A   Clear
12:55 AM 83.7 °F 85.1 °F 64.4 °F 52% 29.95 in 10.0 mi East 5.8 mph - N/A   Clear
1:15 AM 82.8 °F 84.5 °F 64.9 °F 55% 29.94 in 10.0 mi Calm Calm - N/A   Clear
1:35 AM 81.5 °F 83.4 °F 65.3 °F 58% 29.94 in 10.0 mi Calm Calm - N/A   Clear
1:55 AM 81.9 °F 83.7 °F 65.3 °F 57% 29.94 in 10.0 mi NE 3.5 mph - N/A   Clear
2:15 AM 80.8 °F 82.8 °F 65.8 °F 60% 29.94 in 10.0 mi ENE 3.5 mph - N/A   Clear
2:35 AM 78.8 °F - 65.8 °F 64% 29.94 in 10.0 mi East 4.6 mph - N/A   Clear
2:55 AM 79.2 °F - 66.0 °F 64% 29.95 in 10.0 mi East 6.9 mph - N/A   Clear
3:15 AM 79.2 °F - 66.2 °F 64% 29.95 in 10.0 mi ENE 3.5 mph - N/A   Clear
3:35 AM 76.3 °F - 67.1 °F 73% 29.96 in 10.0 mi North 4.6 mph - N/A   Clear
3:55 AM 76.5 °F - 67.1 °F 73% 29.96 in 10.0 mi North 4.6 mph - N/A   Clear
4:15 AM 77.0 °F - 67.3 °F 72% 29.96 in 10.0 mi Calm Calm - N/A   Clear
4:35 AM 76.3 °F - 67.1 °F 73% 29.96 in 10.0 mi Calm Calm - N/A   Clear
4:55 AM 75.6 °F - 66.7 °F 74% 29.97 in 10.0 mi Calm Calm - N/A   Clear
5:15 AM 73.6 °F - 66.4 °F 78% 29.98 in 10.0 mi Calm Calm - N/A   Scattered Clouds
5:35 AM 74.3 °F - 67.1 °F 78% 29.97 in 10.0 mi ESE 3.5 mph - N/A   Clear
5:55 AM 74.3 °F - 66.9 °F 78% 29.98 in 10.0 mi East 3.5 mph - N/A   Clear
6:15 AM 74.3 °F - 67.1 °F 78% 29.98 in 10.0 mi ENE 3.5 mph - N/A   Clear
6:35 AM 73.0 °F - 67.1 °F 82% 29.99 in 10.0 mi Calm Calm - N/A   Clear
6:55 AM 73.9 °F - 67.3 °F 80% 29.99 in 10.0 mi Calm Calm - N/A   Clear
7:15 AM 72.3 °F - 67.5 °F 85% 30.01 in 7.0 mi Calm Calm - N/A   Clear
7:35 AM 72.9 °F - 67.3 °F 83% 30.02 in 7.0 mi NNE 3.5 mph - N/A   Clear
7:55 AM 73.4 °F - 67.8 °F 83% 30.03 in 7.0 mi NE 3.5 mph - N/A   Clear
8:15 AM 75.0 °F - 68.2 °F 79% 30.02 in 10.0 mi Calm Calm - N/A   Clear
8:35 AM 77.2 °F - 68.5 °F 75% 30.03 in 10.0 mi Calm Calm - N/A   Clear
8:55 AM 79.3 °F - 69.1 °F 71% 30.03 in 7.0 mi NNE 3.5 mph - N/A   Clear
9:15 AM 80.8 °F 83.8 °F 68.9 °F 67% 30.04 in 10.0 mi ENE 4.6 mph - N/A   Clear
9:35 AM 83.1 °F 86.8 °F 69.3 °F 63% 30.04 in 10.0 mi East 3.5 mph - N/A   Clear
9:55 AM 85.1 °F 89.1 °F 69.1 °F 59% 30.05 in 10.0 mi ESE 8.1 mph - N/A   Clear
10:15 AM 86.5 °F 90.7 °F 69.1 °F 56% 30.05 in 10.0 mi East 6.9 mph - N/A   Clear
10:35 AM 87.4 °F 91.2 °F 68.5 °F 53% 30.05 in 10.0 mi NE 6.9 mph - N/A   Clear
10:55 AM 88.5 °F 91.9 °F 68.0 °F 50% 30.05 in 10.0 mi East 5.8 mph - N/A   Clear
11:15 AM 89.6 °F 93.0 °F 67.8 °F 48% 30.05 in 10.0 mi East 8.1 mph - N/A   Clear
11:35 AM 91.4 °F 94.5 °F 66.9 °F 44% 30.05 in 10.0 mi East 6.9 mph - N/A   Clear
11:55 AM 92.5 °F 95.4 °F 66.6 °F 42% 30.04 in 10.0 mi SE 6.9 mph - N/A   Clear
12:15 PM 93.6 °F 96.9 °F 66.4 °F 41% 30.04 in 10.0 mi SSE 4.6 mph - N/A   Clear
12:35 PM 94.8 °F 98.1 °F 66.0 °F 39% 30.04 in 10.0 mi East 5.8 mph - N/A   Clear
12:55 PM 95.9 °F 97.5 °F 63.1 °F 34% 30.04 in 10.0 mi East 5.8 mph - N/A   Clear
1:15 PM 95.7 °F 96.7 °F 62.2 °F 33% 30.03 in 10.0 mi East 6.9 mph - N/A   Scattered Clouds
1:35 PM 97.0 °F 97.8 °F 61.5 °F 31% 30.02 in 10.0 mi ESE 3.5 mph - N/A   Mostly Cloudy
1:55 PM 95.9 °F 94.6 °F 57.2 °F 27% 30.02 in 10.0 mi NNE 3.5 mph - N/A   Overcast
2:15 PM 95.2 °F 95.9 °F 61.7 °F 33% 30.01 in 10.0 mi ENE 5.8 mph - N/A   Mostly Cloudy
2:35 PM 95.0 °F 95.6 °F 62.1 °F 33% 30.01 in 10.0 mi North 9.2 mph - N/A   Overcast
2:55 PM 96.3 °F 96.3 °F 60.1 °F 30% 30.00 in 10.0 mi North 5.8 mph - N/A   Scattered Clouds
3:15 PM 97.5 °F 96.9 °F 58.6 °F 27% 29.99 in 10.0 mi North 6.9 mph - N/A   Scattered Clouds
3:35 PM 98.8 °F 98.3 °F 58.5 °F 26% 29.98 in 10.0 mi NE 3.5 mph - N/A   Mostly Cloudy
3:55 PM 98.4 °F 97.8 °F 57.7 °F 26% 29.97 in 10.0 mi East 5.8 mph - N/A   Scattered Clouds
4:15 PM 97.7 °F 97.1 °F 58.1 °F 27% 29.97 in 10.0 mi ENE 5.8 mph - N/A   Scattered Clouds
4:35 PM 98.4 °F 97.3 °F 57.4 °F 25% 29.97 in 10.0 mi NE 5.8 mph - N/A   Clear
4:55 PM 99.0 °F 98.1 °F 57.9 °F 25% 29.96 in 10.0 mi ESE 5.8 mph - N/A   Clear
5:15 PM 98.1 °F 97.2 °F 57.2 °F 26% 29.96 in 10.0 mi NE 5.8 mph - N/A   Clear
5:35 PM 97.9 °F 96.6 °F 56.8 °F 25% 29.96 in 10.0 mi NNW 3.5 mph - N/A   Clear
5:55 PM 98.6 °F 97.6 °F 56.8 °F 25% 29.96 in 10.0 mi East 3.5 mph - N/A   Scattered Clouds
6:15 PM 97.9 °F 96.6 °F 56.7 °F 25% 29.96 in 10.0 mi ENE 3.5 mph - N/A   Scattered Clouds
6:35 PM 97.3 °F 96.2 °F 57.2 °F 26% 29.96 in 10.0 mi ENE 6.9 mph - N/A   Scattered Clouds
6:55 PM 95.7 °F 94.7 °F 57.6 °F 28% 29.96 in 10.0 mi NE 6.9 mph - N/A   Scattered Clouds
7:15 PM 94.6 °F 93.5 °F 57.4 °F 29% 29.96 in 10.0 mi ENE 5.8 mph - N/A   Clear
7:35 PM 93.4 °F 92.5 °F 58.3 °F 31% 29.97 in 10.0 mi East 5.8 mph - N/A   Clear
7:55 PM 92.1 °F 91.1 °F 58.5 °F 32% 29.98 in 10.0 mi East 5.8 mph - N/A   Clear
8:15 PM 91.4 °F 90.7 °F 59.0 °F 34% 29.99 in 10.0 mi East 8.1 mph - N/A   Clear
8:35 PM 91.2 °F 90.5 °F 59.5 °F 34% 29.99 in 10.0 mi East 10.4 mph - N/A   Clear
8:55 PM 90.3 °F 89.9 °F 59.9 °F 36% 30.00 in 10.0 mi East 8.1 mph - N/A   Clear
9:15 PM 89.6 °F 89.2 °F 60.3 °F 37% 30.01 in 10.0 mi East 8.1 mph - N/A   Clear
9:35 PM 87.1 °F 87.2 °F 61.2 °F 42% 30.03 in 10.0 mi East 5.8 mph - N/A   Clear
9:55 PM 86.0 °F 86.3 °F 61.5 °F 44% 30.04 in 10.0 mi SE 3.5 mph - N/A   Clear
10:15 PM 85.5 °F 86.1 °F 62.2 °F 46% 30.04 in 10.0 mi East 4.6 mph - N/A   Clear
10:35 PM 84.7 °F 85.4 °F 62.6 °F 47% 30.04 in 10.0 mi East 3.5 mph - N/A   Clear
10:55 PM 84.2 °F 85.2 °F 63.3 °F 49% 30.04 in 10.0 mi Calm Calm - N/A   Clear
11:15 PM 82.9 °F 84.0 °F 63.1 °F 51% 30.05 in 10.0 mi East 3.5 mph - N/A   Clear
11:35 PM 83.3 °F 84.8 °F 64.6 °F 53% 30.06 in 10.0 mi ENE 3.5 mph - N/A   Scattered Clouds
11:55 PM 83.3 °F 85.1 °F 64.9 °F 54% 30.05 in 10.0 mi ENE 3.5 mph - N/A   Clear